• In Uzbekistan
  • List of Countries
  • For 7 days
  • Water Temperature
  • Satellite Maps
  • Weather Map
  • Weather Widgets
  • user-avatar
    Login

    Hourly Weather Ganja

    Today, 7 December, Wednesday

    Time Temperature Precipitation Wind Pressure Humidity
    00:00 -3°C° 0 mm 2 mps 732 mmHg 68%
    01:00 -3°C° 0 mm 2 mps 732 mmHg 68%
    02:00 -3°C° 0 mm 2 mps 732 mmHg 68%
    03:00 -3°C° 0 mm 2 mps 732 mmHg 66%
    04:00 -4°C° 0 mm 3 mps 732 mmHg 65%
    05:00 -4°C° 0 mm 3 mps 731 mmHg 64%
    06:00 -4°C° 0 mm 3 mps 731 mmHg 64%
    07:00 -2°C° 0 mm 3 mps 731 mmHg 62%
    08:00 0°C° 0 mm 3 mps 731 mmHg 60%
    09:00 0°C° 0 mm 4 mps 730 mmHg 58%
    10:00 +1°C° 0 mm 4 mps 730 mmHg 56%
    11:00 +4°C° 0 mm 4 mps 729 mmHg 53%
    12:00 +5°C° 0 mm 4 mps 728 mmHg 51%
    13:00 +5°C° 0 mm 4 mps 728 mmHg 52%
    14:00 +4°C° 0 mm 4 mps 728 mmHg 53%
    15:00 +4°C° 0 mm 4 mps 728 mmHg 54%
    16:00 +3°C° 0 mm 4 mps 728 mmHg 56%
    17:00 0°C° 0 mm 4 mps 728 mmHg 58%
    18:00 -1°C° 0 mm 4 mps 729 mmHg 60%
    19:00 -1°C° 0 mm 4 mps 729 mmHg 60%
    20:00 -2°C° 0 mm 4 mps 729 mmHg 60%
    21:00 -2°C° 0 mm 4 mps 728 mmHg 59%
    22:00 -2°C° 0 mm 4 mps 729 mmHg 60%
    23:00 -2°C° 0 mm 4 mps 729 mmHg 60%

    Tomorrow, 8 December, Thursday

    Time Temperature Precipitation Wind Pressure Humidity
    00:00 -1°C° 0 mm 3 mps 729 mmHg 61%
    01:00 -1°C° 0 mm 3 mps 729 mmHg 61%
    02:00 -1°C° 0 mm 3 mps 730 mmHg 62%
    03:00 -1°C° 0 mm 3 mps 730 mmHg 63%
    04:00 -1°C° 0 mm 3 mps 731 mmHg 64%
    05:00 -1°C° 0 mm 3 mps 731 mmHg 65%
    06:00 -1°C° 0 mm 3 mps 732 mmHg 67%
    07:00 -2°C° 0.1 mm 4 mps 733 mmHg 66%
    08:00 -2°C° 0.1 mm 4 mps 734 mmHg 66%
    09:00 -2°C° 0.1 mm 5 mps 734 mmHg 65%
    10:00 -1°C° 0.1 mm 5 mps 734 mmHg 62%
    11:00 0°C° 0.1 mm 5 mps 734 mmHg 58%
    12:00 -1°C° 0.1 mm 6 mps 735 mmHg 55%
    13:00 0°C° 0 mm 5 mps 735 mmHg 55%
    14:00 0°C° 0 mm 5 mps 735 mmHg 54%
    15:00 0°C° 0 mm 5 mps 735 mmHg 54%
    16:00 -2°C° 0 mm 4 mps 735 mmHg 59%
    17:00 -4°C° 0 mm 3 mps 735 mmHg 63%
    18:00 -3°C° 0 mm 1 mps 735 mmHg 68%
    19:00 -3°C° 0 mm 1 mps 735 mmHg 69%
    20:00 -3°C° 0 mm 1 mps 736 mmHg 70%
    21:00 -4°C° 0 mm 1 mps 736 mmHg 71%
    22:00 -4°C° 0 mm 1 mps 736 mmHg 74%
    23:00 -4°C° 0 mm 1 mps 735 mmHg 76%

    Day after tomorrow, 9 December, Friday

    Time Temperature Precipitation Wind Pressure Humidity
    00:00 -6°C° 0 mm 1 mps 735 mmHg 79%
    01:00 -6°C° 0 mm 1 mps 735 mmHg 79%
    02:00 -6°C° 0 mm 1 mps 734 mmHg 78%
    03:00 -4°C° 0 mm 1 mps 734 mmHg 78%
    04:00 -4°C° 0 mm 1 mps 734 mmHg 76%
    05:00 -4°C° 0 mm 1 mps 733 mmHg 73%
    06:00 -6°C° 0 mm 2 mps 733 mmHg 70%
    07:00 -5°C° 0 mm 2 mps 732 mmHg 67%
    08:00 -3°C° 0 mm 2 mps 732 mmHg 63%
    09:00 -2°C° 0 mm 2 mps 732 mmHg 60%
    10:00 -1°C° 0 mm 2 mps 731 mmHg 57%
    11:00 0°C° 0 mm 3 mps 730 mmHg 54%
    12:00 +2°C° 0 mm 3 mps 729 mmHg 51%
    13:00 +2°C° 0 mm 3 mps 729 mmHg 53%
    14:00 +2°C° 0 mm 3 mps 728 mmHg 54%
    15:00 +2°C° 0 mm 3 mps 728 mmHg 56%
    16:00 +1°C° 0 mm 3 mps 728 mmHg 58%
    17:00 -1°C° 0 mm 3 mps 728 mmHg 61%
    18:00 -2°C° 0 mm 3 mps 728 mmHg 63%
    19:00 -2°C° 0 mm 3 mps 728 mmHg 63%
    20:00 -2°C° 0 mm 3 mps 727 mmHg 63%
    21:00 -2°C° 0 mm 3 mps 727 mmHg 62%
    22:00 -2°C° 0 mm 3 mps 727 mmHg 63%
    23:00 -2°C° 0 mm 3 mps 727 mmHg 64%

    10 December, Saturday

    Time Temperature Precipitation Wind Pressure Humidity
    00:00 -2°C° 0 mm 2 mps 726 mmHg 64%
    01:00 -2°C° 0 mm 3 mps 726 mmHg 64%
    02:00 -1°C° 0 mm 3 mps 725 mmHg 64%
    03:00 -1°C° 0 mm 3 mps 725 mmHg 64%
    04:00 -1°C° 0 mm 3 mps 724 mmHg 65%
    05:00 -1°C° 0 mm 3 mps 724 mmHg 65%
    06:00 0°C° 0 mm 3 mps 724 mmHg 66%
    07:00 +1°C° 0 mm 3 mps 724 mmHg 65%
    08:00 +1°C° 0 mm 3 mps 724 mmHg 64%
    09:00 +2°C° 0 mm 3 mps 724 mmHg 63%
    10:00 +4°C° 0 mm 3 mps 723 mmHg 61%
    11:00 +5°C° 0 mm 4 mps 723 mmHg 59%
    12:00 +6°C° 0 mm 4 mps 722 mmHg 57%
    13:00 +7°C° 0 mm 3 mps 722 mmHg 58%
    14:00 +7°C° 0 mm 3 mps 722 mmHg 59%
    15:00 +7°C° 0 mm 3 mps 722 mmHg 61%
    16:00 +5°C° 0 mm 3 mps 722 mmHg 63%
    17:00 +4°C° 0 mm 3 mps 723 mmHg 66%
    18:00 +3°C° 0 mm 3 mps 723 mmHg 68%
    19:00 +3°C° 0 mm 3 mps 723 mmHg 68%
    20:00 +3°C° 0 mm 3 mps 723 mmHg 68%
    21:00 +3°C° 0 mm 3 mps 723 mmHg 68%
    22:00 +2°C° 0 mm 3 mps 723 mmHg 68%
    23:00 +2°C° 0 mm 3 mps 723 mmHg 69%

    11 December, Sunday

    Time Temperature Precipitation Wind Pressure Humidity
    00:00 +2°C° 0 mm 3 mps 723 mmHg 69%
    01:00 +1°C° 0 mm 3 mps 723 mmHg 70%
    02:00 +1°C° 0 mm 3 mps 723 mmHg 71%
    03:00 +1°C° 0 mm 3 mps 723 mmHg 72%
    04:00 +1°C° 0 mm 3 mps 723 mmHg 72%
    05:00 +1°C° 0 mm 3 mps 723 mmHg 73%
    06:00 +1°C° 0 mm 3 mps 723 mmHg 73%
    07:00 +2°C° 0 mm 3 mps 723 mmHg 70%
    08:00 +4°C° 0 mm 2 mps 723 mmHg 67%
    09:00 +5°C° 0 mm 2 mps 723 mmHg 63%
    10:00 +5°C° 0 mm 2 mps 723 mmHg 61%
    11:00 +5°C° 0 mm 3 mps 722 mmHg 59%
    12:00 +7°C° 0 mm 3 mps 722 mmHg 56%
    13:00 +7°C° 0 mm 3 mps 721 mmHg 58%
    14:00 +7°C° 0 mm 3 mps 721 mmHg 61%
    15:00 +7°C° 0 mm 3 mps 721 mmHg 63%
    16:00 +5°C° 0 mm 3 mps 721 mmHg 66%
    17:00 +3°C° 0 mm 3 mps 721 mmHg 68%
    18:00 +2°C° 0 mm 3 mps 721 mmHg 71%
    19:00 +1°C° 0 mm 4 mps 722 mmHg 70%
    20:00 +1°C° 0 mm 4 mps 722 mmHg 69%
    21:00 +1°C° 0 mm 4 mps 722 mmHg 68%
    22:00 +1°C° 0 mm 4 mps 723 mmHg 68%
    23:00 +1°C° 0 mm 4 mps 723 mmHg 68%

    12 December, Monday

    Time Temperature Precipitation Wind Pressure Humidity
    00:00 +2°C° 0 mm 3 mps 723 mmHg 68%
    01:00 +2°C° 0 mm 3 mps 723 mmHg 69%
    02:00 +2°C° 0 mm 3 mps 723 mmHg 70%
    03:00 +2°C° 0 mm 3 mps 723 mmHg 71%
    04:00 +3°C° 0 mm 2 mps 723 mmHg 71%
    05:00 +2°C° 0 mm 2 mps 723 mmHg 72%
    06:00 +2°C° 0 mm 2 mps 723 mmHg 73%
    07:00 +4°C° 0 mm 2 mps 724 mmHg 69%
    08:00 +5°C° 0 mm 2 mps 724 mmHg 66%
    09:00 +6°C° 0 mm 2 mps 724 mmHg 62%
    10:00 +7°C° 0 mm 2 mps 724 mmHg 61%
    11:00 +8°C° 0 mm 2 mps 723 mmHg 59%
    12:00 +9°C° 0 mm 2 mps 723 mmHg 57%
    13:00 +9°C° 0 mm 2 mps 722 mmHg 59%
    14:00 +9°C° 0 mm 2 mps 722 mmHg 61%
    15:00 +9°C° 0 mm 2 mps 721 mmHg 62%
    16:00 +8°C° 0 mm 2 mps 721 mmHg 66%
    17:00 +6°C° 0 mm 2 mps 721 mmHg 69%
    18:00 +4°C° 0 mm 3 mps 721 mmHg 73%
    19:00 +4°C° 0 mm 3 mps 721 mmHg 72%
    20:00 +4°C° 0 mm 3 mps 720 mmHg 71%
    21:00 +4°C° 0 mm 3 mps 720 mmHg 70%
    22:00 +4°C° 0 mm 3 mps 720 mmHg 70%
    23:00 +4°C° 0 mm 3 mps 720 mmHg 70%
    Show more